Location: *
(10.5081°N, 66.9194°W)
Time: 04:14:21
(UTC+00:00)

NOSS 3-3 (C) - Pass Details

Date: 30 March 2020
Orbit: 836 x 1376 km, 63.4° (Epoch: 05 May)

Event Time Altitude Azimuth Distance (km) Brightness Sun altitude
Rises 23:04:01 0° 189° (S) 3,398 6.9 -7.1°
Reaches altitude 10° 23:06:36 10° 181° (S) 2,445 6.1 -7.7°
Maximum altitude 23:11:49 41° 112° (ESE) 1,192 4.1 -9.0°
Drops below altitude 10° 23:17:08 10° 43° (NE) 2,505 5.8 -10.3°
Sets 23:19:48 0° 36° (NE) 3,492 6.6 -11.0°
